Location: *
(41.7492°S, 135.4150°W)
Time: 19:13:27
(UTC+00:00)

Cosmos 1607 - Pass Details

Date: 20 September 2021
Orbit: 915 x 987 km, 65.0° (Epoch: 16 October)

Event Time Altitude Azimuth Distance (km) Brightness Sun altitude
Exits shadow 14:13:27 - 301° (WNW) 2,878 5.9 -8.3°
Reaches altitude 10° 14:14:13 10° 298° (WNW) 2,615 5.7 -8.2°
Maximum altitude 14:19:55 41° 228° (SW) 1,319 4.4 -7.1°
Drops below altitude 10° 14:25:43 10° 158° (SSE) 2,650 6.7 -6.0°
Sets 14:28:27 0° 151° (SSE) 3,605 7.5 -5.5°
